EW3937 Weather Reports


Display with metric or nautical units.
time (UTC)temp
F
wind
direction
speed
MPH
gust
MPH
rain 1hr
in
rain 24hr
in
rain mn
in
humidity
%
barometer
mb
20260831194003 78 86 1.0 5.0 0.00 0.00 0.00 24 1014.4
20260831193717 78 97 1.0 5.0 0.00 0.00 0.00 25 1014.4
20260831193003 78 103 1.0 4.0 0.00 0.00 0.00 26 1014.5
20260831192503 78 107 1.0 4.0 0.00 0.00 0.00 27 1014.7
20260831192003 77 96 1.0 4.0 0.00 0.00 0.00 27 1014.8
20260831191503 77 101 1.0 5.0 0.00 0.00 0.00 27 1014.7
20260831191003 77 139 1.0 5.0 0.00 0.00 0.00 27 1014.7
20260831190716 77 127 1.0 5.0 0.00 0.00 0.00 27 1014.8
20260831190003 76 105 1.0 3.0 0.00 0.00 0.00 27 1014.9
20260831185503 76 93 1.0 7.0 0.00 0.00 0.00 28 1015.0
20260831185003 75 84 1.0 7.0 0.00 0.00 0.00 28 1015.1
20260831184503 75 81 1.0 7.0 0.00 0.00 0.00 28 1015.2
20260831184003 74 73 1.0 6.0 0.00 0.00 0.00 29 1015.2
20260831183503 74 78 2.0 5.0 0.00 0.00 0.00 30 1015.2
20260831183004 73 84 2.0 5.0 0.00 0.00 0.00 33 1015.3
20260831182504 73 81 2.0 5.0 0.00 0.00 0.00 31 1015.3
20260831182003 73 86 2.0 6.0 0.00 0.00 0.00 32 1015.5
20260831181503 72 80 2.0 6.0 0.00 0.00 0.00 32 1015.5
20260831181003 72 75 2.0 8.0 0.00 0.00 0.00 32 1015.5
20260831180503 71 81 3.0 8.0 0.00 0.00 0.00 32 1015.5
20260831180003 71 86 3.0 10.0 0.00 0.00 0.00 32 1015.6
20260831175503 71 90 2.0 10.0 0.00 0.00 0.00 32 1015.7
20260831175003 71 81 2.0 7.0 0.00 0.00 0.00 34 1015.7
20260831174503 71 73 2.0 6.0 0.00 0.00 0.00 33 1015.8
20260831174003 70 62 2.0 6.0 0.00 0.00 0.00 35 1015.8
20260831173503 70 57 2.0 7.0 0.00 0.00 0.00 35 1015.9
20260831173003 70 85 2.0 7.0 0.00 0.00 0.00 35 1015.8
20260831172503 69 90 2.0 6.0 0.00 0.00 0.00 35 1015.9
20260831172003 69 68 1.0 6.0 0.00 0.00 0.00 36 1016.0
20260831171504 68 328 1.0 4.0 0.00 0.00 0.00 37 1016.0
20260831171003 68 348 1.0 4.0 0.00 0.00 0.00 37 1016.0
20260831170503 68 40 2.0 5.0 0.00 0.00 0.00 37 1016.0
20260831170003 67 60 2.0 6.0 0.00 0.00 0.00 38 1016.0
20260831165718 67 70 1.0 6.0 0.00 0.00 0.00 38 1016.0
20260831165003 67 69 1.0 4.0 0.00 0.00 0.00 38 1016.0
20260831164718 66 63 1.0 5.0 0.00 0.00 0.00 40 1016.0
20260831164003 66 90 2.0 5.0 0.00 0.00 0.00 39 1016.2
20260831163503 66 53 1.0 5.0 0.00 0.00 0.00 40 1016.2
20260831163003 65 46 1.0 4.0 0.00 0.00 0.00 41 1016.2
20260831162503 65 88 2.0 5.0 0.00 0.00 0.00 41 1016.2
20260831162005 64 88 2.0 8.0 0.00 0.00 0.00 42 1016.2
20260831161503 64 88 1.0 8.0 0.00 0.00 0.00 43 1016.3
20260831161003 63 76 1.0 6.0 0.00 0.00 0.00 43 1016.4
20260831160503 63 305 1.0 3.0 0.00 0.00 0.00 45 1016.4
20260831160003 62 309 0.0 3.0 0.00 0.00 0.00 45 1016.4
20260831155503 62 146 0.0 4.0 0.00 0.00 0.00 46 1016.4
20260831155003 61 290 1.0 4.0 0.00 0.00 0.00 48 1016.4
20260831154503 60 312 1.0 4.0 0.00 0.00 0.00 49 1016.4
20260831154003 60 306 1.0 4.0 0.00 0.00 0.00 50 1016.4
20260831153717 59 295 1.0 4.0 0.00 0.00 0.00 50 1016.4
20260831153003 58 262 1.0 3.0 0.00 0.00 0.00 52 1016.5
20260831152503 58 237 1.0 3.0 0.00 0.00 0.00 52 1016.6
20260831152003 57 105 1.0 4.0 0.00 0.00 0.00 54 1016.5
20260831151503 56 92 2.0 4.0 0.00 0.00 0.00 55 1016.5
20260831151218 56 91 2.0 5.0 0.00 0.00 0.00 56 1016.5
20260831150503 54 91 2.0 6.0 0.00 0.00 0.00 58 1016.6
20260831150003 53 92 1.0 7.0 0.00 0.00 0.00 60 1016.5
20260831145503 52 95 1.0 7.0 0.00 0.00 0.00 61 1016.5
20260831145003 52 99 1.0 4.0 0.00 0.00 0.00 62 1016.6
20260831144503 51 96 1.0 3.0 0.00 0.00 0.00 63 1016.5
20260831144003 50 94 1.0 4.0 0.00 0.00 0.00 64 1016.6
20260831143717 50 94 1.0 5.0 0.00 0.00 0.00 65 1016.5
20260831143003 48 97 1.0 5.0 0.00 0.00 0.00 68 1016.5
20260831142503 47 98 0.0 3.0 0.00 0.00 0.00 71 1016.3
20260831142003 46 0 2.0 2.0 0.00 0.00 0.00 69 1016.3
20260831141503 45 0 2.0 2.0 0.00 0.00 0.00 71 1016.4
20260831141003 44 0 1.0 1.0 0.00 0.00 0.00 73 1016.4
20260831140503 42 0 1.0 1.0 0.00 0.00 0.00 75 1016.4
20260831140003 41 0 1.0 1.0 0.00 0.00 0.00 77 1016.4
20260831135717 40 0 1.0 1.0 0.00 0.00 0.00 77 1016.2
20260831135003 38 0 0.0 0.0 0.00 0.00 0.00 76 1016.3
20260831134503 37 0 0.0 0.0 0.00 0.00 0.00 76 1016.3
20260831134003 37 0 0.0 0.0 0.00 0.00 0.00 76 1016.4
20260831133503 37 0 0.0 0.0 0.00 0.00 0.00 76 1016.4
20260831133003 37 0 0.0 0.0 0.00 0.00 0.00 76 1016.2
20260831132503 37 0 0.0 0.0 0.00 0.00 0.00 76 1016.2
20260831132003 37 0 0.0 0.0 0.00 0.00 0.00 76 1016.2
20260831131503 37 0 0.0 0.0 0.00 0.00 0.00 76 1016.2
20260831131003 37 0 0.0 0.0 0.00 0.00 0.00 76 1016.2
20260831130503 37 0 0.0 0.0 0.00 0.00 0.00 76 1016.2
20260831130004 37 0 0.0 0.0 0.00 0.00 0.00 76 1016.0
20260831125503 37 0 0.0 0.0 0.00 0.00 0.00 76 1016.0
20260831125003 37 0 0.0 0.0 0.00 0.00 0.00 76 1016.1
20260831124503 37 0 0.0 0.0 0.00 0.00 0.00 76 1016.0
20260831124003 37 0 0.0 0.0 0.00 0.00 0.00 76 1016.1
20260831123503 37 0 0.0 0.0 0.00 0.00 0.00 76 1016.1
20260831123003 37 0 0.0 0.0 0.00 0.00 0.00 76 1016.1
20260831122718 37 0 0.0 0.0 0.00 0.00 0.00 76 1016.1
20260831122217 37 0 0.0 0.0 0.00 0.00 0.00 76 1016.2
20260831121503 37 0 0.0 0.0 0.00 0.00 0.00 76 1016.3
20260831121003 37 0 0.0 0.0 0.00 0.00 0.00 76 1016.3
20260831120503 37 0 1.0 1.0 0.00 0.00 0.00 76 1016.3
20260831120003 37 0 1.0 1.0 0.00 0.00 0.00 76 1016.3
20260831115503 37 0 1.0 1.0 0.00 0.00 0.00 77 1016.3
20260831115003 38 0 1.0 1.0 0.00 0.00 0.00 75 1016.2
20260831114503 39 0 0.0 2.0 0.00 0.00 0.00 73 1016.2
20260831114003 39 0 0.0 2.0 0.00 0.00 0.00 74 1016.2
20260831113503 39 0 0.0 2.0 0.00 0.00 0.00 79 1016.2
20260831113217 38 0 0.0 1.0 0.00 0.00 0.00 78 1016.2
20260831112718 38 0 0.0 1.0 0.00 0.00 0.00 80 1016.3
20260831112216 37 0 0.0 1.0 0.00 0.00 0.00 80 1016.2
20260831111717 36 0 0.0 1.0 0.00 0.00 0.00 79 1016.2
20260831111003 36 0 0.0 0.0 0.00 0.00 0.00 79 1016.2
20260831110503 36 0 0.0 0.0 0.00 0.00 0.00 77 1016.2
20260831110003 37 0 0.0 0.0 0.00 0.00 0.00 78 1016.3
20260831105503 37 0 0.0 0.0 0.00 0.00 0.00 77 1016.3
20260831105003 37 0 0.0 0.0 0.00 0.00 0.00 78 1016.2
20260831104503 37 0 0.0 0.0 0.00 0.00 0.00 78 1016.1
20260831104003 37 0 0.0 0.0 0.00 0.00 0.00 76 1016.1
20260831103717 38 0 0.0 0.0 0.00 0.00 0.00 76 1016.2
20260831103003 38 0 0.0 0.0 0.00 0.00 0.00 78 1016.2
20260831102503 38 0 0.0 0.0 0.00 0.00 0.00 77 1016.2
20260831102218 38 0 0.0 0.0 0.00 0.00 0.00 76 1016.3
20260831101503 38 0 0.0 0.0 0.00 0.00 0.00 74 1016.3
20260831101003 38 0 0.0 0.0 0.00 0.00 0.00 75 1016.4
20260831100503 38 0 0.0 2.0 0.00 0.00 0.00 75 1016.4
20260831100003 39 0 0.0 2.0 0.00 0.00 0.00 74 1016.4
20260831095503 39 0 0.0 1.0 0.00 0.00 0.00 74 1016.4
20260831095003 39 0 0.0 1.0 0.00 0.00 0.00 75 1016.4
20260831094503 39 0 0.0 1.0 0.00 0.00 0.00 74 1016.4
20260831094003 40 0 0.0 1.0 0.00 0.00 0.00 71 1016.4
20260831093503 40 0 0.0 1.0 0.00 0.00 0.00 75 1016.4
20260831093003 40 0 0.0 0.0 0.00 0.00 0.00 73 1016.5
20260831092503 40 0 0.0 0.0 0.00 0.00 0.00 74 1016.5
20260831092003 39 0 0.0 1.0 0.00 0.00 0.00 74 1016.6
20260831091503 39 0 0.0 1.0 0.00 0.00 0.00 76 1016.6
20260831091003 38 0 0.0 1.0 0.00 0.00 0.00 77 1016.8
20260831090503 38 0 0.0 0.0 0.00 0.00 0.00 77 1016.8
20260831090003 37 0 0.0 0.0 0.00 0.00 0.00 75 1016.8
20260831085503 38 0 0.0 0.0 0.00 0.00 0.00 75 1016.9
20260831085003 38 0 0.0 0.0 0.00 0.00 0.00 75 1016.9
20260831084503 38 0 0.0 0.0 0.00 0.00 0.00 75 1016.9
20260831084003 38 0 0.0 0.0 0.00 0.00 0.00 76 1016.9
20260831083503 38 0 0.0 0.0 0.00 0.00 0.00 76 1016.8
20260831083003 38 0 0.0 0.0 0.00 0.00 0.00 75 1016.8
20260831082503 38 0 0.0 0.0 0.00 0.00 0.00 75 1016.8
20260831082003 39 0 0.0 0.0 0.00 0.00 0.00 74 1016.8
20260831081503 39 0 0.0 0.0 0.00 0.00 0.00 75 1016.8
20260831081003 39 0 0.0 0.0 0.00 0.00 0.00 74 1016.8
20260831080718 39 0 0.0 0.0 0.00 0.00 0.00 73 1016.8
20260831080217 39 0 0.0 0.0 0.00 0.00 0.00 73 1016.8
20260831075503 39 0 0.0 0.0 0.00 0.00 0.00 73 1016.9
20260831075003 40 0 0.0 0.0 0.00 0.00 0.00 72 1016.9
20260831074503 40 0 0.0 0.0 0.00 0.00 0.00 71 1016.9
20260831074003 40 0 0.0 0.0 0.00 0.00 0.00 70 1016.9
20260831073503 41 0 0.0 0.0 0.00 0.00 0.00 71 1017.0
20260831073003 41 0 0.0 1.0 0.00 0.00 0.00 71 1017.0
20260831072503 42 0 0.0 1.0 0.00 0.00 0.00 70 1017.0
20260831072003 42 0 0.0 1.0 0.00 0.00 0.00 69 1017.0
20260831071503 43 0 0.0 0.0 0.00 0.00 0.00 69 1016.9
20260831071003 43 0 0.0 1.0 0.00 0.00 0.00 67 1017.0
20260831070503 44 0 0.0 1.0 0.00 0.00 0.00 67 1016.9
20260831070004 44 0 0.0 1.0 0.00 0.00 0.00 69 1017.0
20260831065503 43 0 0.0 3.0 0.00 0.00 0.00 69 1016.9
20260831065003 43 0 0.0 3.0 0.00 0.00 0.00 70 1017.0
20260831064503 41 0 0.0 3.0 0.00 0.00 0.00 71 1017.0
20260831064003 41 0 0.0 0.0 0.00 0.00 0.00 69 1016.9
20260831063503 42 0 0.0 0.0 0.00 0.00 0.00 69 1017.0
20260831063217 42 0 0.0 1.0 0.00 0.00 0.00 70 1016.9
20260831062718 42 0 0.0 1.0 0.00 0.00 0.00 69 1017.0
20260831062003 42 0 0.0 0.0 0.00 0.00 0.00 68 1016.9
20260831061718 42 0 0.0 0.0 0.00 0.00 0.00 70 1016.9
20260831061217 42 0 0.0 0.0 0.00 0.00 0.00 69 1016.9
20260831060503 43 0 0.0 0.0 0.00 0.00 0.00 68 1016.8
20260831060003 43 0 0.0 0.0 0.00 0.00 0.00 67 1016.8
20260831055717 44 0 0.0 0.0 0.00 0.00 0.00 66 1016.8
20260831055003 44 0 0.0 0.0 0.00 0.00 0.00 66 1016.8
20260831054503 44 0 0.0 1.0 0.00 0.00 0.00 67 1016.9
20260831054003 45 0 0.0 1.0 0.00 0.00 0.00 67 1016.9
20260831053503 45 0 0.0 0.0 0.00 0.00 0.00 64 1016.9
20260831053003 45 0 0.0 0.0 0.00 0.00 0.00 64 1016.9
20260831052503 46 0 0.0 0.0 0.00 0.00 0.00 64 1016.9
20260831052218 46 0 0.0 1.0 0.00 0.00 0.00 64 1016.9
20260831051503 46 0 0.0 1.0 0.00 0.00 0.00 65 1016.9
20260831051218 46 0 0.0 1.0 0.00 0.00 0.00 66 1017.0
20260831050503 46 0 0.0 1.0 0.00 0.00 0.00 65 1017.1
20260831050003 46 0 0.0 0.0 0.00 0.00 0.00 65 1017.1
20260831045503 46 0 0.0 0.0 0.00 0.00 0.00 66 1017.1
20260831045218 46 0 0.0 0.0 0.00 0.00 0.00 66 1017.1
20260831044503 46 0 0.0 1.0 0.00 0.00 0.00 61 1017.2
20260831044003 47 0 0.0 1.0 0.00 0.00 0.00 62 1017.2
20260831043503 47 0 0.0 0.0 0.00 0.00 0.00 63 1017.2
20260831043218 47 0 0.0 1.0 0.00 0.00 0.00 64 1017.2
20260831042717 47 0 0.0 1.0 0.00 0.00 0.00 63 1017.2
20260831042218 47 0 0.0 1.0 0.00 0.00 0.00 61 1017.2
20260831041717 48 0 0.0 0.0 0.00 0.00 0.00 61 1017.2
20260831041003 48 0 0.0 0.0 0.00 0.00 0.00 60 1017.2
20260831040503 48 0 0.0 1.0 0.00 0.00 0.00 60 1017.2
20260831040218 48 0 0.0 1.0 0.00 0.00 0.00 59 1017.2
20260831035503 49 0 0.0 1.0 0.00 0.00 0.00 57 1017.1
20260831035003 50 0 0.0 1.0 0.00 0.00 0.00 55 1017.2
20260831034717 50 0 0.0 1.0 0.00 0.00 0.00 60 1017.2
20260831034003 49 139 0.0 2.0 0.00 0.00 0.00 58 1017.2
20260831033503 49 138 0.0 2.0 0.00 0.00 0.00 56 1017.1
20260831033218 50 138 0.0 2.0 0.00 0.00 0.00 56 1017.1
20260831032503 50 0 1.0 1.0 0.00 0.00 0.00 55 1017.1
20260831032003 51 0 1.0 1.0 0.00 0.00 0.00 54 1017.0
20260831031503 52 0 1.0 1.0 0.00 0.00 0.00 52 1016.9
20260831031217 52 0 1.0 1.0 0.00 0.00 0.00 51 1016.9
20260831030503 54 0 2.0 2.0 0.00 0.00 0.00 49 1016.8
20260831030003 55 0 0.0 1.0 0.00 0.00 0.00 49 1016.8
20260831025503 56 0 0.0 0.0 0.00 0.00 0.00 47 1016.8
20260831025003 58 0 0.0 1.0 0.00 0.00 0.00 45 1016.8
20260831024503 59 0 0.0 1.0 0.00 0.00 0.00 43 1016.8
20260831024003 61 0 0.0 0.0 0.00 0.00 0.00 43 1016.8
20260831023503 62 0 0.0 1.0 0.00 0.00 0.00 44 1016.7
20260831023003 63 0 0.0 1.0 0.00 0.00 0.00 44 1016.7
20260831022503 64 0 0.0 1.0 0.00 0.00 0.00 41 1016.7
20260831022003 65 0 0.0 1.0 0.00 0.00 0.00 40 1016.6
20260831021503 66 0 0.0 0.0 0.00 0.00 0.00 38 1016.6
20260831021003 67 0 0.0 1.0 0.00 0.00 0.00 38 1016.6
20260831020503 68 0 0.0 1.0 0.00 0.00 0.00 37 1016.5
20260831020003 68 326 0.0 2.0 0.00 0.00 0.00 37 1016.5
20260831015503 68 317 1.0 2.0 0.00 0.00 0.00 37 1016.5
20260831015003 68 309 0.0 3.0 0.00 0.00 0.00 37 1016.5
20260831014718 68 299 0.0 3.0 0.00 0.00 0.00 37 1016.5
20260831014217 70 0 0.0 2.0 0.00 0.00 0.00 35 1016.5
20260831013503 71 0 0.0 0.0 0.00 0.00 0.00 34 1016.5
20260831013003 71 0 0.0 1.0 0.00 0.00 0.00 35 1016.6
20260831012503 70 290 0.0 2.0 0.00 0.00 0.00 35 1016.6
20260831012003 70 287 1.0 2.0 0.00 0.00 0.00 36 1016.6
20260831011503 70 265 1.0 3.0 0.00 0.00 0.00 35 1016.7
20260831011003 70 262 1.0 3.0 0.00 0.00 0.00 36 1016.8
20260831010503 70 284 1.0 3.0 0.00 0.00 0.00 36 1016.8
20260831010004 70 293 1.0 4.0 0.00 0.00 0.00 35 1016.9
20260831005503 70 292 1.0 4.0 0.00 0.00 0.00 36 1016.8
20260831005003 70 283 0.0 3.0 0.00 0.00 0.00 36 1016.9
20260831004503 71 256 0.0 2.0 0.00 0.00 0.00 35 1017.0
20260831004219 71 246 1.0 4.0 0.00 0.00 0.00 36 1016.9
20260831003503 70 244 1.0 4.0 0.00 0.00 0.00 36 1017.0
20260831003003 70 250 1.0 5.0 0.00 0.00 0.00 37 1016.9
20260831002717 70 252 1.0 6.0 0.00 0.00 0.00 36 1016.9
20260831002003 70 279 1.0 6.0 0.00 0.00 0.00 36 1016.9
20260831001503 70 291 1.0 4.0 0.00 0.00 0.00 37 1016.9
20260831001003 69 323 1.0 2.0 0.00 0.00 0.00 37 1016.9
20260831000503 69 317 1.0 4.0 0.00 0.00 0.00 37 1016.9
20260831000003 69 301 1.0 5.0 0.00 0.00 0.00 37 1017.0
20260830235503 70 277 1.0 5.0 0.00 0.00 0.00 36 1017.0
20260830235003 70 229 2.0 4.0 0.00 0.00 0.00 36 1017.1
20260830234717 70 231 2.0 6.0 0.00 0.00 0.00 37 1017.1
20260830234003 70 223 1.0 6.0 0.00 0.00 0.00 37 1017.1
20260830233503 70 229 1.0 5.0 0.00 0.00 0.00 36 1017.2
20260830233003 70 320 2.0 3.0 0.00 0.00 0.00 37 1017.2
20260830232503 70 247 2.0 7.0 0.00 0.00 0.00 36 1017.3
20260830232218 70 236 1.0 7.0 0.00 0.00 0.00 37 1017.3
20260830231503 69 249 1.0 7.0 0.00 0.00 0.00 38 1017.3
20260830231003 69 246 1.0 7.0 0.00 0.00 0.00 37 1017.4
20260830230503 70 277 1.0 5.0 0.00 0.00 0.00 37 1017.5
20260830230003 69 312 2.0 5.0 0.00 0.00 0.00 37 1017.5
20260830225503 69 257 2.0 8.0 0.00 0.00 0.00 38 1017.6
20260830225003 70 214 2.0 8.0 0.00 0.00 0.00 37 1017.6
20260830224717 69 222 1.0 8.0 0.00 0.00 0.00 36 1017.6
20260830224003 69 283 1.0 5.0 0.00 0.00 0.00 37 1017.7
20260830223503 69 243 2.0 3.0 0.00 0.00 0.00 36 1017.7
20260830223218 69 271 2.0 5.0 0.00 0.00 0.00 37 1017.7
20260830222503 69 251 1.0 7.0 0.00 0.00 0.00 38 1017.8
20260830222003 69 265 1.0 7.0 0.00 0.00 0.00 37 1017.7
20260830221503 69 317 1.0 6.0 0.00 0.00 0.00 38 1017.8
20260830221218 69 295 2.0 5.0 0.00 0.00 0.00 37 1017.9
20260830220717 69 240 3.0 5.0 0.00 0.00 0.00 38 1017.9
20260830220003 69 231 2.0 6.0 0.00 0.00 0.00 38 1017.9
20260830215716 69 230 2.0 6.0 0.00 0.00 0.00 37 1017.9
20260830215003 69 300 1.0 5.0 0.00 0.00 0.00 37 1018.0
20260830214716 69 314 1.0 5.0 0.00 0.00 0.00 38 1018.1
20260830214003 69 263 2.0 6.0 0.00 0.00 0.00 37 1018.1
20260830213503 69 200 3.0 9.0 0.00 0.00 0.00 36 1018.1
20260830213003 69 214 2.0 9.0 0.00 0.00 0.00 37 1018.1
20260830212503 69 225 2.0 8.0 0.00 0.00 0.00 36 1018.1
20260830212217 69 240 2.0 8.0 0.00 0.00 0.00 36 1018.1
20260830211503 68 237 3.0 6.0 0.00 0.00 0.00 37 1018.3
20260830211003 68 224 2.0 10.0 0.00 0.00 0.00 37 1018.3
20260830210503 68 225 1.0 10.0 0.00 0.00 0.00 37 1018.3
20260830210003 68 236 2.0 5.0 0.00 0.00 0.00 38 1018.4
20260830205503 67 170 3.0 6.0 0.00 0.00 0.00 37 1018.4
20260830205003 67 198 4.0 6.0 0.00 0.00 0.00 37 1018.4
20260830204503 67 222 4.0 11.0 0.00 0.00 0.00 37 1018.6
20260830204003 67 219 3.0 11.0 0.00 0.00 0.00 37 1018.6
20260830203503 68 217 3.0 11.0 0.00 0.00 0.00 36 1018.5
20260830203003 67 224 3.0 11.0 0.00 0.00 0.00 37 1018.5
20260830202503 68 212 4.0 7.0 0.00 0.00 0.00 38 1018.6
20260830202003 67 213 5.0 9.0 0.00 0.00 0.00 37 1018.6
20260830201503 67 215 4.0 13.0 0.00 0.00 0.00 38 1018.6
20260830201003 67 218 2.0 13.0 0.00 0.00 0.00 37 1018.5
20260830200503 68 225 2.0 9.0 0.00 0.00 0.00 37 1018.6
20260830200003 68 228 2.0 7.0 0.00 0.00 0.00 37 1018.6
20260830195503 68 231 2.0 7.0 0.00 0.00 0.00 37 1018.8
20260830195003 68 243 2.0 6.0 0.00 0.00 0.00 38 1018.7
20260830194503 67 249 3.0 6.0 0.00 0.00 0.00 40 1018.8